Wetbulb
55.10 56.51 56.96 57.48 57.81 57.89 57.46 56.50 56.71 55.27 54.85 55.46 55.66 55.94 56.59 57.15 57.83 57.88 58.20 58.25 57.60 57.58 57.61 56.53 56.04 56.67 55.91 55.71 52.44 51.83 49.98 48.69 46.73 42.46 37.50 35.86 35.78 35.30 35.11 35.48 34.89 34.83 35.24
54.31 54.19 55.03 55.54 54.12 54.99 55.84 56.51 53.79 55.03 54.47 55.71 56.81 57.25 57.64 57.65 58.12 57.95 58.00 57.97 57.23 56.52 56.48 55.60 54.47 53.65 53.36 54.09 49.46 47.77 47.48 46.96 45.29 45.68 33.15 33.30 33.59 35.11 34.72 33.52 32.85 33.55 32.98
52.24 53.19 51.97 52.56 52.85 53.47 54.06 53.47 53.56 53.80 54.93 56.04 56.93 57.12 57.25 57.52 57.56 57.45 57.69 56.72 54.76 54.30 53.71 52.26 52.83 50.06 48.06 47.00 45.42 45.06 44.21 40.84 39.44 36.13 33.94 32.55 32.39 33.45 31.95 32.41 31.92 31.83 32.29
48.66 50.16 50.90 50.92 51.15 50.80 50.95 52.04 52.80 52.80 53.20 53.59 54.22 54.37 53.13 53.05 52.19 50.20 49.15 49.49 49.20 48.68 47.65 46.98 46.87 46.33 45.93 45.40 42.53 42.04 40.74 37.07 35.14 33.44 32.02 31.66 32.23 31.39 31.98 30.81 29.71 29.66 30.26
41.34 42.06 43.25 42.52 42.60 42.09 41.88 43.38 47.03 47.92 48.10 47.48 47.20 45.80 44.75 45.12 43.54 44.37 44.12 44.34 43.86 43.50 42.89 42.94 42.66 41.04 38.82 41.69 41.46 39.94 37.81 35.56 33.83 33.58 31.30 30.80 29.51 29.24 29.92 30.56 30.29 29.98 29.90
39.59 39.58 39.63 39.72 39.09 38.96 37.83 37.86 41.59 41.49 42.29 41.26 40.42 40.68 40.98 40.14 41.43 41.78 41.74 41.92 41.46 40.48 39.90 40.21 39.74 36.40 38.23 38.90 40.33 41.10 39.44 36.55 34.40 33.73 31.58 31.12 30.27 30.50 31.03 29.91 29.95 27.55 26.89
38.66 37.38 37.32 37.11 37.17 36.74 36.33 36.25 35.80 36.06 36.40 37.05 37.08 38.27 38.66 39.47 40.04 40.04 38.46 38.73 38.84 38.66 38.08 36.65 36.22 36.45 34.24 35.26 36.98 39.20 38.66 39.38 38.22 35.56 32.47 31.65 30.80 31.34 31.53 29.89 30.01 29.46 29.15
36.79 36.13 35.43 35.72 35.41 34.74 34.81 34.58 33.85 33.75 34.26 34.49 36.22 37.16 36.95 36.19 38.59 38.55 37.63 36.33 35.56 36.83 36.14 34.98 34.61 34.68 34.85 33.91 34.08 34.14 34.19 34.50 34.57 34.01 33.62 32.61 33.06 32.70 33.16 32.30 31.39 30.15 26.16
35.31 35.09 34.41 34.39 32.10 32.05 30.92 31.83 32.38 32.42 34.93 33.97 34.20 33.66 33.82 33.78 36.99 37.61 36.40 33.44 34.25 33.81 33.24 33.74 33.64 33.43 35.08 36.39 33.05 32.52 32.14 32.23 36.21 35.73 35.12 35.66 35.80 35.40 33.56 30.68 28.16 26.21 25.20
34.46 34.27 33.63 32.74 31.13 30.22 31.08 31.62 31.73 33.49 33.07 33.05 32.67 32.76 32.29 32.58 35.75 36.95 35.99 32.80 32.77 30.69 29.33 32.34 32.45 34.18 35.75 35.92 33.25 32.54 31.67 31.86 32.21 31.86 32.05 33.66 34.78 34.38 35.52 31.80 30.07 26.92 19.62
32.37 30.98 30.18 29.43 29.78 30.61 30.83 30.19 32.53 32.31 32.05 31.80 32.22 31.79 32.27 31.81 31.69 36.21 36.97 32.92 32.63 32.22 31.41 28.80 29.34 34.12 35.18 35.84 36.53 32.72 32.84 32.43 33.37 32.05 31.76 31.51 31.53 30.79 32.48 32.26 30.36 29.27 18.96
30.80 31.22 31.19 31.57 31.52 31.46 33.16 32.57 32.76 32.68 32.41 32.01 31.46 30.31 28.46 26.65 32.99 34.56 36.03 36.26 36.10 32.77 32.17 31.42 28.67 34.18 34.77 35.60 35.11 35.39 36.00 33.82 32.04 30.86 29.99 29.91 30.02 30.56 31.55 31.58 29.20 28.30 26.98
31.74 31.77 31.82 31.98 32.06 32.43 33.06 32.68 32.37 32.49 31.58 30.49 30.56 29.53 24.97 24.38 24.56 32.33 34.21 34.70 34.84 33.04 32.27 32.78 34.28 34.57 34.53 33.72 35.28 36.20 33.15 31.53 30.27 29.59 28.76 29.55 30.29 31.11 26.64 27.91 31.55 28.28 25.88
31.58 30.45 30.59 30.91 31.19 32.15 32.21 31.86 32.70 31.53 29.69 29.68 29.65 29.26 28.32 21.32 22.24 24.64 25.55 30.81 31.48 32.65 33.15 32.17 33.09 33.29 33.47 31.50 27.89 31.04 31.85 31.98 30.65 29.67 27.52 23.77 22.79 20.87 24.85 25.65 28.90 29.14 27.61
29.23 28.37 28.80 28.97 28.80 27.04 26.52 25.60 24.62 20.05 24.89 21.86 17.60 24.97 27.07 26.08 23.08 30.97 29.27 28.03 31.56 32.53 30.80 30.53 29.82 29.35 28.85 28.84 26.72 28.31 28.40 30.85 30.17 30.09 28.95 28.53 27.28 26.06 26.49 24.98 27.51 27.76 25.98
27.40 26.82 25.57 25.42 25.46 26.38 28.40 28.61 32.77 31.95 33.46 33.01 31.12 26.13 19.82 31.33 33.29 33.63 34.13 34.87 35.03 34.90 31.46 29.45 28.65 28.20 27.86 27.78 27.62 28.15 28.79 29.44 30.34 30.10 30.26 29.92 29.02 28.03 25.94 25.27 26.71 26.59 25.41
26.43 24.24 22.08 22.58 23.43 23.91 24.15 27.19 26.28 29.67 32.03 32.00 31.85 31.89 32.00 31.89 32.50 32.77 33.50 33.85 34.12 29.69 28.44 29.39 29.07 28.76 28.68 27.57 26.87 26.50 27.04 27.75 20.02 27.22 29.76 29.71 29.08 28.66 27.53 27.15 27.43 26.31 25.63
26.42 25.03 26.98 27.40 24.00 21.21 20.06 22.47 21.19 21.53 20.14 16.38 23.09 26.09 30.33 30.45 30.30 29.89 31.02 27.24 17.79 21.60 16.35 19.63 23.43 22.62 23.87 23.87 24.48 26.22 26.41 20.46 20.14 27.35 28.08 28.26 28.77 28.89 27.81 27.09 26.81 26.42 26.16
27.94 27.60 26.22 26.46 25.01 23.77 22.93 22.16 21.72 20.95 19.74 17.08 6.50 16.68 14.21 25.65 25.03 26.52 23.13 17.53 18.78 17.66 11.32 11.35 10.46 17.32 19.84 21.19 20.50 21.69 23.82 26.42 28.13 28.21 28.22 28.30 27.83 27.89 26.72 26.99 27.21 26.13 26.47
27.35 27.31 25.96 24.01 20.99 14.99 18.14 19.44 18.73 16.33 12.81 8.69 4.79 7.79 5.98 5.57 3.20 0.88 3.81 0.08 1.77 -0.48 -0.30 0.61 2.60 2.58 7.31 9.75 12.49 12.58 12.47 12.23 15.77 17.63 19.12 20.76 23.57 26.10 27.39 27.11 26.75 25.73 25.13
19.95 18.73 17.19 14.02 10.55 8.07 8.11 9.87 11.72 9.52 9.48 7.24 7.92 10.03 16.80 2.23 -3.09 -3.56 -3.87 -2.97 -4.20 -4.38 -3.85 -3.56 -2.73 -2.08 -2.17 0.13 1.71 2.50 3.45 5.46 6.60 12.31 14.69 15.80 17.16 17.54 19.57 20.55 21.36 21.91 19.79
15.09 13.49 9.22 7.42 7.33 7.40 7.22 9.10 10.13 9.93 9.75 10.71 6.03 7.28 14.08 -0.19 -1.68 0.94 -1.09 -3.77 -4.71 -4.50 -4.14 -4.38 -3.89 -3.36 -4.33 -3.64 -2.84 -1.53 -1.93 -1.44 -0.84 2.03 6.38 8.17 9.83 11.80 14.16 16.45 17.34 18.54 18.65
10.19 9.45 8.26 8.06 9.29 10.19 9.46 9.37 9.65 8.86 7.36 5.70 3.72 4.11 2.76 -2.76 -2.88 -4.45 -3.84 -5.56 -5.28 -4.01 -5.01 -6.81 -6.68 -6.94 -6.45 -6.95 -7.84 -7.70 -6.30 -4.07 -2.17 -0.79 3.42 4.95 6.39 8.19 10.25 11.16 12.59 13.95 14.57
10.66 10.01 9.07 8.16 8.40 10.09 10.48 9.47 8.16 7.30 7.30 6.17 2.97 0.98 1.66 -3.23 -3.99 -3.32 -5.33 -4.96 -4.91 -6.78 -7.37 -7.93 -7.41 -8.80 -10.18 -10.53 -10.54 -9.67 -7.61 -3.92 -6.37 -1.19 1.01 2.92 3.56 6.02 7.31 8.33 9.66 10.73 11.75
9.63 9.67 9.88 9.51 9.09 8.58 7.83 7.31 6.59 5.41 4.58 4.05 3.32 1.54 -1.78 -3.93 -3.49 -6.44 -7.32 -6.95 -8.02 -9.53 -7.15 -7.23 -8.32 -8.01 -8.31 -6.61 -5.49 -5.39 -3.84 0.38 -1.03 0.66 2.41 3.44 4.32 4.55 5.54 6.50 7.12 8.22 8.28
7.24 7.15 6.99 6.65 6.29 5.80 5.35 5.38 5.16 4.37 3.73 3.59 2.33 0.81 -0.61 -2.51 -3.16 -5.68 -5.11 -5.80 -5.39 -5.83 -5.68 -5.99 -4.81 -4.96 -5.50 -5.40 -5.07 -1.55 1.18 7.47 7.37 8.61 9.20 4.15 2.46 4.77 4.58 3.99 3.95 5.25 5.46
MSLP
1011.59 1012.16 1012.88 1013.39 1013.89 1014.57 1015.06 1015.37 1015.64 1016.14 1016.47 1016.69 1017.06 1017.47 1017.70 1017.83 1017.99 1018.22 1018.31 1018.46 1018.60 1018.58 1018.64 1018.62 1018.52 1018.66 1018.77 1018.80 1018.93 1019.08 1019.32 1019.88 1020.40 1020.37 1021.61 1022.49 1022.52 1022.97 1023.39 1025.16 1024.82 1025.67 1026.20
1011.20 1011.85 1012.42 1012.94 1013.39 1013.93 1014.29 1014.58 1015.02 1015.46 1015.74 1016.07 1016.47 1016.71 1016.92 1017.09 1017.26 1017.49 1017.65 1017.76 1017.85 1017.85 1017.92 1018.05 1018.11 1018.35 1018.35 1018.35 1018.60 1018.99 1019.35 1019.58 1020.28 1020.53 1021.71 1022.04 1022.66 1022.69 1023.33 1023.55 1024.17 1024.60 1025.79
1010.95 1011.53 1012.00 1012.45 1012.89 1013.29 1013.65 1014.21 1014.70 1015.09 1015.33 1015.58 1015.86 1016.05 1016.27 1016.49 1016.76 1016.95 1017.07 1017.16 1017.25 1017.49 1017.74 1017.84 1017.90 1018.08 1018.28 1018.46 1018.72 1019.03 1019.23 1019.56 1019.95 1020.32 1021.03 1021.82 1022.18 1022.86 1023.29 1023.50 1024.44 1024.40 1024.49
1010.92 1011.35 1011.86 1012.22 1012.63 1013.08 1013.58 1014.06 1014.43 1014.72 1015.02 1015.36 1015.68 1015.90 1016.11 1016.28 1016.53 1016.81 1017.04 1017.44 1017.54 1017.84 1018.06 1018.25 1018.34 1018.41 1018.46 1018.49 1018.74 1018.73 1019.08 1019.53 1019.65 1020.28 1021.10 1021.41 1022.14 1022.69 1022.83 1023.18 1023.98 1024.19 1024.98
1010.92 1011.35 1011.81 1012.35 1012.81 1013.26 1013.78 1014.15 1014.50 1014.78 1015.10 1015.47 1015.85 1016.24 1016.60 1016.75 1016.95 1017.12 1017.39 1017.60 1017.81 1018.08 1018.23 1018.27 1018.40 1018.35 1018.37 1018.38 1018.70 1018.51 1018.74 1019.16 1019.62 1020.10 1020.63 1021.23 1021.79 1022.31 1022.43 1022.61 1023.60 1023.50 1023.85
1011.09 1011.58 1012.02 1012.56 1013.04 1013.45 1013.91 1014.38 1014.77 1015.13 1015.47 1015.84 1016.15 1016.44 1016.79 1017.03 1017.14 1017.24 1017.48 1017.72 1017.82 1018.07 1018.36 1018.32 1018.40 1018.45 1018.28 1018.35 1018.42 1018.44 1018.58 1018.64 1018.89 1019.47 1020.02 1020.29 1020.76 1021.37 1021.95 1022.39 1022.97 1023.29 1024.28
1010.90 1011.58 1012.11 1012.64 1013.17 1013.72 1014.09 1014.54 1015.06 1015.46 1015.75 1016.13 1016.40 1016.68 1016.89 1017.01 1017.14 1017.29 1017.46 1017.69 1017.82 1017.96 1018.13 1018.37 1018.40 1018.33 1018.39 1018.36 1018.15 1018.21 1018.55 1018.56 1018.63 1018.84 1019.16 1019.47 1019.79 1019.96 1020.46 1021.32 1021.90 1022.20 1022.26
1011.16 1011.68 1012.13 1012.64 1013.16 1013.67 1014.03 1014.49 1014.90 1015.21 1015.53 1016.04 1016.45 1016.76 1016.97 1017.28 1017.33 1017.27 1017.40 1017.62 1017.80 1017.97 1018.14 1018.40 1018.31 1018.21 1018.30 1018.27 1018.27 1018.32 1018.27 1018.50 1018.41 1018.47 1018.54 1018.66 1018.89 1019.29 1019.74 1020.41 1020.80 1021.39 1022.15
1011.11 1011.61 1012.13 1012.59 1013.21 1013.74 1014.13 1014.70 1015.09 1015.54 1015.93 1016.35 1016.71 1017.02 1017.17 1017.37 1017.20 1017.17 1017.25 1017.31 1017.74 1017.67 1017.72 1017.97 1017.74 1017.91 1017.88 1017.92 1017.97 1018.47 1018.49 1018.67 1018.43 1018.34 1018.60 1018.70 1018.83 1019.17 1019.70 1020.43 1020.88 1021.67 1021.70
1010.83 1011.38 1011.93 1012.49 1013.14 1013.77 1014.24 1014.71 1015.06 1015.16 1015.63 1016.10 1016.67 1016.77 1016.92 1017.20 1017.09 1016.84 1016.91 1016.78 1017.29 1017.74 1017.73 1017.59 1017.44 1017.14 1017.24 1017.69 1017.92 1018.26 1018.24 1018.35 1019.14 1019.29 1019.13 1019.29 1019.35 1019.51 1019.81 1020.07 1020.36 1020.78 1021.42
1010.74 1011.41 1012.10 1012.71 1013.06 1013.44 1014.09 1014.65 1014.90 1015.38 1015.54 1016.21 1016.72 1017.11 1017.22 1017.35 1017.43 1017.20 1017.22 1017.18 1017.47 1017.40 1017.84 1017.77 1017.50 1017.19 1016.96 1017.08 1016.90 1017.04 1017.90 1018.49 1018.68 1018.98 1019.26 1019.42 1019.50 1019.73 1019.84 1020.00 1020.19 1020.63 1020.85
1011.03 1011.72 1012.31 1012.66 1013.09 1013.68 1014.11 1014.56 1014.98 1015.22 1015.66 1016.47 1016.83 1017.24 1017.49 1017.41 1017.35 1017.46 1017.58 1017.75 1017.67 1017.73 1017.77 1017.48 1017.18 1017.35 1017.13 1017.22 1017.49 1017.83 1018.14 1018.03 1017.92 1018.23 1018.59 1018.95 1019.21 1019.13 1019.01 1019.11 1019.43 1019.70 1019.85
1011.15 1011.87 1012.51 1012.92 1013.38 1013.82 1014.06 1014.60 1015.18 1015.49 1016.03 1016.60 1017.10 1017.65 1017.96 1017.52 1017.28 1017.44 1017.71 1017.86 1017.96 1018.09 1017.88 1017.60 1017.44 1017.54 1017.57 1017.54 1017.60 1017.63 1017.92 1018.58 1018.50 1018.42 1018.66 1018.77 1018.60 1018.85 1018.94 1018.92 1018.79 1019.04 1019.23
1011.36 1011.98 1012.72 1013.13 1013.36 1013.78 1014.07 1014.53 1015.30 1015.65 1016.20 1016.88 1017.55 1017.82 1017.81 1017.74 1018.00 1017.97 1017.84 1018.10 1018.25 1018.14 1017.91 1017.58 1017.36 1017.41 1017.50 1017.73 1017.76 1017.99 1017.99 1018.35 1018.77 1018.30 1018.65 1018.89 1018.97 1019.09 1019.03 1018.90 1018.93 1018.82 1019.06
1011.44 1012.03 1012.85 1013.23 1013.57 1013.89 1014.63 1015.08 1015.46 1016.05 1016.21 1016.62 1017.25 1017.80 1017.81 1018.04 1018.12 1017.85 1017.44 1017.77 1018.30 1017.96 1017.98 1017.84 1017.77 1017.94 1018.00 1018.12 1018.07 1018.33 1018.19 1018.03 1018.39 1018.01 1018.10 1018.62 1018.98 1019.09 1018.97 1018.88 1018.79 1018.68 1018.33
1011.16 1012.18 1012.95 1013.37 1013.58 1014.48 1014.82 1015.14 1015.48 1015.78 1016.13 1015.95 1016.63 1016.67 1017.42 1017.53 1017.71 1017.54 1017.48 1017.61 1017.72 1017.38 1017.40 1017.58 1017.68 1018.02 1018.43 1018.52 1018.48 1018.35 1017.91 1017.65 1018.01 1017.97 1017.93 1017.82 1018.11 1018.17 1018.04 1018.06 1017.93 1017.82 1017.54
1011.25 1011.99 1012.60 1013.12 1013.96 1014.41 1014.78 1015.07 1015.55 1016.54 1016.50 1016.68 1016.75 1017.25 1017.55 1017.57 1017.20 1017.86 1018.02 1017.95 1017.79 1017.42 1017.46 1017.85 1017.70 1017.76 1018.08 1017.93 1018.16 1018.09 1017.98 1017.46 1017.58 1017.74 1017.51 1017.30 1017.40 1017.49 1017.54 1017.41 1017.17 1017.00 1016.61
1011.39 1011.90 1012.48 1013.35 1013.97 1014.55 1015.04 1015.49 1015.67 1016.19 1017.18 1017.83 1018.23 1018.03 1017.66 1017.87 1018.34 1018.28 1018.35 1018.63 1018.89 1018.97 1019.22 1019.23 1019.16 1019.11 1019.02 1018.78 1018.53 1018.26 1017.70 1017.58 1017.79 1017.68 1017.35 1017.04 1017.00 1017.04 1017.01 1016.65 1016.42 1016.25 1015.98
1011.89 1012.33 1013.03 1013.81 1014.37 1014.90 1015.58 1015.97 1016.18 1016.83 1017.71 1018.68 1019.27 1019.06 1018.84 1018.47 1018.40 1018.77 1019.38 1019.87 1020.55 1021.01 1020.89 1020.79 1020.43 1020.03 1019.83 1019.48 1019.34 1018.93 1018.52 1018.09 1017.71 1017.36 1017.13 1016.91 1016.69 1016.65 1016.48 1016.17 1015.88 1015.58 1015.50
1012.35 1013.10 1013.87 1014.54 1015.15 1015.64 1016.06 1016.50 1017.09 1017.73 1018.59 1019.09 1019.32 1019.53 1019.49 1019.64 1020.01 1020.18 1020.73 1021.26 1021.53 1021.85 1021.69 1021.65 1021.21 1020.85 1020.48 1020.19 1019.91 1019.90 1019.56 1019.25 1018.83 1018.47 1018.25 1017.96 1017.36 1016.72 1016.27 1015.84 1015.45 1015.02 1015.00
1013.18 1014.10 1014.67 1015.52 1015.95 1016.43 1016.81 1017.10 1017.62 1018.32 1018.92 1019.32 1019.67 1019.58 1019.59 1020.23 1020.83 1021.34 1021.78 1021.77 1021.93 1021.98 1021.92 1021.88 1021.41 1021.05 1021.06 1020.83 1020.76 1020.52 1020.22 1019.95 1019.56 1019.14 1018.82 1018.36 1018.06 1017.50 1016.75 1016.26 1015.91 1015.59 1015.17
1014.23 1015.26 1015.82 1016.20 1016.65 1016.98 1017.35 1017.66 1018.21 1018.89 1019.43 1019.53 1019.88 1020.06 1020.21 1020.72 1021.20 1021.56 1021.60 1021.80 1021.83 1022.22 1022.11 1022.01 1021.72 1021.58 1021.52 1021.31 1021.21 1020.97 1020.50 1020.08 1019.80 1019.61 1019.45 1019.08 1018.64 1018.02 1017.41 1016.64 1015.98 1015.59 1015.31
1014.80 1015.43 1016.17 1016.79 1017.09 1017.42 1017.74 1018.08 1018.47 1018.88 1019.22 1019.46 1020.10 1020.61 1020.99 1021.48 1021.58 1021.48 1021.47 1021.49 1021.59 1021.88 1021.66 1021.59 1021.67 1021.56 1021.13 1021.08 1020.92 1020.88 1020.66 1020.39 1020.19 1020.14 1019.81 1019.22 1018.71 1018.28 1017.60 1017.09 1016.25 1015.58 1015.25
1015.40 1015.98 1016.57 1017.09 1017.36 1017.45 1017.86 1018.36 1018.55 1018.94 1019.24 1019.62 1020.10 1020.74 1021.09 1021.26 1021.21 1021.03 1021.09 1021.31 1021.42 1021.23 1021.24 1021.22 1021.26 1021.23 1021.23 1021.13 1020.70 1020.40 1020.25 1019.98 1019.88 1019.70 1019.60 1019.14 1018.68 1018.21 1017.80 1017.43 1016.74 1016.49 1015.72
1016.05 1016.41 1016.84 1017.21 1017.51 1017.66 1017.96 1018.30 1018.60 1018.94 1019.15 1019.55 1020.02 1020.49 1020.83 1021.04 1021.13 1021.04 1020.95 1021.00 1021.05 1021.17 1020.86 1020.80 1020.80 1020.80 1020.65 1020.33 1019.98 1019.55 1019.33 1019.20 1019.06 1018.70 1018.44 1018.23 1018.06 1017.56 1017.49 1017.24 1016.73 1016.11 1015.83
1016.61 1016.86 1017.08 1017.29 1017.52 1017.81 1018.07 1018.31 1018.42 1018.64 1018.90 1019.18 1019.59 1019.98 1020.23 1020.37 1020.54 1020.71 1020.71 1020.68 1020.80 1020.73 1020.57 1020.40 1020.18 1020.11 1020.05 1019.79 1019.61 1019.34 1019.01 1018.68 1018.30 1017.84 1017.53 1017.41 1017.35 1017.29 1016.99 1016.90 1016.39 1016.25 1015.78
Wind_Speed
12 12 12 12 12 10 10 9 11 7 8 10 10 9 11 12 12 12 12 13 13 13 12 12 14 12 9 8 6 7 8 6 10 1 2 2 8 12 8 7 6 7 5
10 10 11 10 9 10 11 12 7 11 8 9 10 11 11 11 11 11 12 10 11 12 12 9 10 6 9 8 3 6 6 6 7 12 2 1 1 7 7 10 8 7 7
8 10 8 10 9 11 10 8 7 6 7 8 9 10 10 10 8 8 9 9 6 6 5 6 8 4 5 3 4 4 4 2 3 3 3 1 2 5 4 5 6 4 5
7 7 8 7 7 5 5 5 5 3 3 3 4 4 3 2 2 2 3 4 4 4 4 4 5 5 6 5 5 6 3 4 3 2 1 3 2 1 3 6 5 2 4
7 6 6 5 5 5 5 5 4 3 2 3 3 5 4 4 3 3 3 3 3 4 4 4 4 5 8 6 3 4 5 4 3 5 3 2 2 4 8 4 4 2 4
7 7 6 6 6 6 6 6 6 4 4 5 5 4 4 2 3 3 2 1 1 2 4 4 4 4 5 8 9 10 8 7 8 5 4 5 5 4 5 5 4 3 4
8 7 7 7 7 7 6 7 7 6 5 5 4 4 3 4 4 4 3 0 1 3 3 3 4 3 4 5 6 9 9 10 6 7 7 6 7 8 10 7 7 7 6
7 7 7 7 7 6 7 6 6 4 6 5 5 4 3 4 5 5 4 2 1 2 3 3 3 5 4 4 4 4 5 5 5 4 4 4 3 7 7 7 10 7 2
8 7 7 6 6 6 6 6 4 5 4 3 3 3 4 3 3 3 3 3 2 3 2 1 1 4 7 7 2 2 2 2 6 6 5 7 9 11 9 4 5 6 7
8 8 7 6 6 6 6 6 3 3 4 4 4 3 4 3 3 3 3 3 3 1 1 0 1 1 4 7 2 3 4 4 2 1 2 4 6 6 13 8 6 9 3
7 7 6 5 6 7 7 4 5 5 6 4 5 3 4 2 3 5 5 1 0 1 0 1 2 4 4 4 5 6 4 3 6 3 3 2 2 3 4 7 7 7 3
8 7 7 6 5 5 7 4 5 6 6 5 5 4 2 3 6 7 7 4 3 2 2 1 1 5 6 5 5 4 7 4 3 3 3 3 4 5 6 7 6 7 4
9 8 7 6 5 5 6 6 4 5 4 3 3 3 1 3 3 7 7 7 6 1 2 1 4 8 9 7 7 5 3 2 2 2 3 5 5 4 2 2 6 6 6
10 8 7 7 7 5 4 4 4 4 4 3 3 3 2 3 3 3 2 3 6 4 4 2 4 5 6 5 2 2 1 2 3 3 3 2 1 1 3 2 5 5 5
8 7 7 6 7 6 4 4 5 2 5 4 3 4 4 2 2 3 1 2 1 2 2 1 2 3 2 1 2 2 2 1 2 2 3 4 4 3 5 3 6 6 8
10 7 6 6 7 7 8 7 9 9 10 12 11 7 1 2 4 4 4 3 3 6 2 2 1 1 1 1 1 2 2 2 3 3 4 5 6 6 5 4 6 7 8
9 9 6 7 7 8 7 10 11 8 14 13 12 10 7 6 9 7 4 6 7 6 3 1 1 1 1 2 3 3 2 2 1 3 5 5 5 6 6 6 6 7 8
9 9 7 6 6 5 5 5 5 7 5 3 9 9 8 10 8 11 7 7 5 7 4 4 4 4 3 3 3 2 1 1 2 5 7 7 6 7 7 6 6 8 8
7 6 5 5 5 5 5 5 5 6 5 3 2 5 7 9 11 11 15 5 4 4 4 4 3 5 5 6 5 6 7 7 6 5 5 5 5 6 9 8 7 8 9
6 9 6 4 5 4 5 6 5 5 4 3 3 2 2 4 4 4 4 3 3 2 2 2 2 2 3 3 4 4 4 4 5 5 6 7 8 8 7 9 8 9 7
5 4 7 4 4 3 3 4 4 4 4 3 2 1 8 4 3 2 2 3 2 2 1 1 2 2 2 3 3 3 2 3 3 5 6 5 6 7 7 7 7 7 4
5 4 4 4 3 4 4 4 4 3 3 3 2 3 8 3 3 2 2 0 1 1 1 0 1 1 1 1 2 2 2 3 3 3 4 6 6 7 8 8 7 7 7
6 6 5 3 4 5 4 3 4 4 3 3 2 2 1 1 1 2 2 2 1 2 2 1 1 3 2 2 1 1 1 3 3 3 6 6 7 7 7 8 8 8 6
5 5 4 3 2 3 3 3 3 3 3 3 2 2 2 2 3 2 2 2 2 2 1 1 1 3 3 3 3 3 2 3 3 4 6 6 6 7 7 8 8 9 8
4 4 3 3 2 2 2 1 1 1 1 2 2 2 2 2 3 3 3 3 2 2 3 2 2 4 4 5 6 6 6 8 7 7 5 6 8 8 7 7 7 7 7
3 2 2 2 1 1 1 2 3 3 3 3 3 3 3 3 2 2 2 2 2 3 4 3 4 6 6 5 6 8 8 10 10 10 6 4 3 5 4 6 6 5 6
Wind_Direction
189 193 197 202 205 202 207 209 212 197 192 203 202 205 214 218 222 222 229 233 233 240 240 236 239 244 243 238 226 241 240 234 256 243 92 180 180 189 176 197 177 198 206
187 184 195 195 183 193 204 214 183 209 201 206 206 214 221 225 227 226 236 236 236 241 240 242 245 252 249 253 226 233 245 227 241 266 145 123 273 184 180 168 177 177 205
168 183 185 191 188 201 207 201 200 204 207 208 210 214 222 229 231 231 235 241 227 237 254 248 262 261 263 250 233 243 241 177 186 162 167 129 122 169 156 151 204 176 194
175 176 185 187 188 175 165 178 193 199 210 220 225 232 252 260 277 340 357 334 349 347 336 322 311 290 268 258 224 223 216 188 158 121 103 127 152 127 154 176 182 148 226
171 173 191 175 167 158 158 146 157 142 119 84 69 60 57 63 52 39 43 358 330 314 321 309 295 278 270 260 230 213 184 180 151 190 148 139 153 145 185 171 217 156 203
156 170 153 147 147 151 142 137 148 130 110 106 104 109 95 95 68 53 44 343 304 281 296 298 289 282 280 276 269 253 202 190 193 188 167 185 166 160 162 164 167 155 252
153 152 152 149 148 149 141 134 131 134 129 121 103 96 100 96 72 72 68 188 239 245 265 295 312 298 288 293 294 268 228 233 202 191 185 187 168 170 158 160 187 195 204
155 157 158 156 150 147 142 139 131 128 127 128 127 134 118 82 58 56 42 52 12 6 15 342 316 312 311 288 282 240 219 218 184 187 190 160 132 145 158 187 198 204 68
168 168 165 155 144 147 138 141 128 125 116 100 116 111 100 113 91 86 105 104 63 59 48 10 328 307 316 300 229 228 195 229 198 180 179 162 165 168 182 139 176 181 210
170 169 158 147 143 145 139 148 150 135 130 132 126 128 117 122 82 88 121 130 128 130 308 221 314 316 300 296 229 180 205 181 168 96 162 208 211 209 200 199 182 208 198
138 127 124 134 143 140 137 145 140 134 122 113 105 79 85 58 18 30 35 55 282 142 168 306 294 335 331 285 222 160 192 161 197 186 185 182 181 204 212 210 209 219 209
124 123 127 129 124 138 137 131 128 123 119 123 117 91 50 31 41 27 21 9 233 195 224 231 271 357 11 350 331 216 250 180 146 161 164 194 203 207 215 218 212 221 225
132 133 129 121 126 146 135 128 118 110 113 112 108 103 15 5 31 39 38 27 14 324 292 301 11 11 13 15 358 334 205 168 194 182 215 228 215 235 238 230 230 224 223
144 134 138 140 134 130 117 105 122 125 109 109 115 113 75 32 14 356 36 39 38 38 16 33 49 40 29 2 26 329 163 201 225 219 225 257 270 192 231 207 242 245 253
135 133 140 136 136 118 93 133 123 124 141 138 153 130 110 66 275 305 87 151 133 75 86 33 34 31 33 28 358 330 323 332 259 231 242 261 268 240 246 229 242 252 251
141 146 153 147 130 135 130 115 113 130 135 121 130 129 199 151 57 51 65 80 118 121 131 119 113 115 296 305 305 266 208 180 261 268 263 261 263 258 246 215 227 230 245
147 143 137 130 145 148 143 140 133 110 102 94 89 85 86 98 81 50 69 89 106 97 125 147 135 168 243 210 228 220 255 245 285 264 275 274 265 258 251 252 248 239 245
133 137 136 143 139 134 133 134 128 132 118 61 37 67 86 89 71 49 60 51 26 17 29 27 24 12 3 351 342 311 290 298 274 290 296 294 286 282 277 260 249 251 254
133 125 115 124 114 115 120 112 112 113 115 120 23 34 19 85 73 66 56 71 76 43 16 24 9 16 7 11 1 357 354 348 333 307 288 288 277 273 284 277 268 258 258
93 103 100 97 109 117 126 131 124 118 125 129 121 173 327 33 40 34 45 54 63 60 25 25 341 352 13 5 5 355 351 346 349 342 335 337 341 330 294 280 273 271 261
77 77 102 100 100 99 104 108 115 122 135 146 117 180 87 108 117 95 58 42 53 34 359 326 334 9 357 4 359 349 339 317 323 330 325 327 322 313 310 301 300 298 287
94 99 90 103 105 98 100 104 118 119 123 124 84 36 89 92 112 121 119 61 315 287 258 260 324 321 303 338 333 321 308 308 306 320 324 314 309 308 307 303 298 291 284
113 114 108 109 122 129 111 109 116 132 133 114 106 91 80 129 161 169 191 223 237 276 299 9 340 316 314 310 297 242 277 277 276 303 303 306 312 306 306 301 302 299 287
94 103 114 116 127 105 111 140 118 118 133 140 151 179 193 199 211 224 229 251 267 273 268 281 271 280 297 296 306 298 273 270 249 258 277 292 291 294 296 300 301 299 295
86 96 98 113 130 124 129 135 123 167 177 192 193 191 190 212 228 236 241 243 255 286 296 306 280 271 274 294 293 292 280 290 271 257 252 250 262 270 277 282 286 290 291
105 108 94 86 88 118 193 217 217 215 221 213 208 214 214 219 236 237 240 237 244 253 265 257 262 273 280 278 286 291 288 293 284 271 263 235 245 270 266 269 283 291 290